Zurück zum Katalog

GLOBALSTAR M095

AktivKommunikationLEO
NORAD 39077·PAYLOAD·🇺🇸 United States

Gestartet Feb 6, 2013 von Baikonur Cosmodrome

Loading…

Nächste Überflüge (nächste 24 Stunden)

TLE

AktuellSource: Space-Track

Epoche: Sep 14, 2026, 16:57 UTC

1 39077U 13005F   26257.70662231 -.00000102  00000-0  84583-5 0  9991
2 39077  52.0107   8.7281 0001027 117.3838 242.7133 12.62264449627175

Verfolge GLOBALSTAR M095 in Echtzeit mit AllMySat

Download on the App Store